N1PRS-9 Weather Reports


Display with metric or nautical units.
time (UTC)temp
F
wind
direction
speed
MPH
gust
MPH
rain 1hr
in
rain 24hr
in
rain mn
in
humidity
%
barometer
mb
20260510225030 63 0 0.0 1.0 0.00 0.34 0.02 85 1013.4
20260510224544 63 0 0.0 1.0 0.00 0.34 0.02 85 1013.4
20260510224029 63 0 0.0 1.0 0.00 0.34 0.02 86 1013.4
20260510223531 63 0 0.0 1.0 0.00 0.34 0.02 86 1013.3
20260510223040 63 0 0.0 0.0 0.00 0.34 0.02 87 1013.3
20260510222533 63 0 0.0 0.0 0.00 0.34 0.02 87 1013.4
20260510222030 63 0 0.0 0.0 0.00 0.34 0.02 87 1013.3
20260510221545 63 0 0.0 0.0 0.00 0.34 0.02 87 1013.3
20260510221031 63 0 0.0 0.0 0.00 0.34 0.02 87 1013.3
20260510220532 63 0 0.0 0.0 0.00 0.34 0.02 88 1013.3
20260510220047 63 0 0.0 0.0 0.00 0.34 0.02 87 1013.2
20260510215531 63 0 0.0 0.0 0.01 0.42 0.02 85 1013.1
20260510215031 63 0 0.0 0.0 0.01 0.42 0.02 83 1013.2
20260510214543 63 0 0.0 0.0 0.02 0.42 0.02 82 1013.3
20260510214033 63 0 0.0 0.0 0.02 0.42 0.02 84 1013.2
20260510213532 63 0 0.0 2.0 0.02 0.42 0.02 85 1013.1
20260510213052 63 0 0.0 2.0 0.02 0.42 0.02 86 1013.0
20260510212531 63 0 0.0 2.0 0.02 0.42 0.02 85 1013.0
20260510212031 63 0 0.0 2.0 0.02 0.42 0.02 86 1012.9
20260510211544 63 0 0.0 2.0 0.02 0.42 0.02 87 1012.9
20260510211031 63 201 0.0 3.0 0.02 0.42 0.02 87 1013.1
20260510210530 63 211 0.0 3.0 0.02 0.42 0.02 85 1013.2
20260510210040 64 181 0.0 4.0 0.02 0.42 0.02 84 1013.1
20260510205531 65 120 1.0 6.0 0.01 0.61 0.01 82 1013.0
20260510205031 65 130 1.0 6.0 0.01 0.61 0.01 82 1013.0
20260510204541 66 309 0.0 3.0 0.00 0.60 0.00 80 1012.9
20260510204034 66 0 0.0 3.0 0.00 0.60 0.00 78 1012.6
20260510203531 66 0 0.0 4.0 0.00 0.60 0.00 77 1012.4
20260510203048 66 0 0.0 4.0 0.00 0.60 0.00 76 1012.2
20260510202535 67 0 1.0 4.0 0.00 0.60 0.00 76 1012.2
20260510202031 67 154 0.0 4.0 0.00 0.60 0.00 76 1012.2
20260510201544 67 142 1.0 5.0 0.00 0.60 0.00 75 1012.2
20260510201031 68 0 0.0 7.0 0.00 0.60 0.00 75 1012.2
20260510200531 68 200 1.0 7.0 0.00 0.60 0.00 74 1012.2
20260510200044 68 169 1.0 6.0 0.00 0.60 0.00 75 1012.2
20260510195533 68 0 0.0 6.0 0.00 0.72 0.00 76 1012.3
20260510195031 68 161 0.0 6.0 0.00 0.72 0.00 76 1012.3
20260510194544 68 155 1.0 6.0 0.00 0.72 0.00 74 1012.3
20260510194036 68 179 1.0 6.0 0.00 0.72 0.00 73 1012.3
20260510193531 69 216 2.0 6.0 0.00 0.72 0.00 72 1012.3
20260510193048 69 0 0.0 2.0 0.00 0.72 0.00 74 1012.4
20260510192529 69 0 0.0 6.0 0.00 0.72 0.00 73 1012.3
20260510192032 69 0 1.0 6.0 0.00 0.72 0.00 73 1012.3
20260510191545 69 182 1.0 5.0 0.00 0.72 0.00 72 1012.4
20260510191031 70 0 1.0 4.0 0.00 0.72 0.00 72 1012.4
20260510190532 69 0 0.0 4.0 0.00 0.72 0.00 73 1012.5
20260510190053 69 0 0.0 5.0 0.00 0.72 0.00 73 1012.7
20260510185531 69 0 0.0 5.0 0.00 0.74 0.00 72 1012.7
20260510185033 69 185 1.0 5.0 0.00 0.74 0.00 75 1012.7
20260510184609 69 180 0.0 4.0 0.00 0.74 0.00 72 1012.7
20260510184036 69 150 0.0 4.0 0.00 0.74 0.00 75 1012.8
20260510183533 69 144 0.0 4.0 0.00 0.74 0.00 77 1012.6
20260510183043 68 0 1.0 6.0 0.00 0.74 0.00 74 1012.6
20260510182533 68 167 0.0 6.0 0.00 0.74 0.00 74 1012.8
20260510182036 69 177 1.0 6.0 0.00 0.74 0.00 72 1012.9
20260510181555 69 184 1.0 4.0 0.00 0.74 0.00 72 1012.9
20260510181032 70 0 0.0 3.0 0.00 0.74 0.00 73 1012.7
20260510180533 69 0 0.0 4.0 0.00 0.74 0.00 74 1012.9
20260510180105 69 0 1.0 5.0 0.00 0.74 0.00 74 1012.9
20260510175534 69 174 1.0 5.0 0.00 0.74 0.00 74 1012.6
20260510175033 68 309 1.0 5.0 0.00 0.74 0.00 73 1012.8
20260510174544 68 175 1.0 5.0 0.00 0.74 0.00 74 1012.7
20260510174034 68 192 1.0 3.0 0.00 0.74 0.00 75 1012.8
20260510173535 68 180 0.0 4.0 0.00 0.74 0.00 76 1012.7
20260510173053 68 182 0.0 5.0 0.00 0.74 0.00 77 1012.8
20260510172533 68 0 1.0 5.0 0.00 0.74 0.00 75 1012.9
20260510172033 68 0 0.0 6.0 0.00 0.74 0.00 77 1012.9
20260510171559 68 0 1.0 7.0 0.00 0.74 0.00 76 1012.9
20260510171031 68 180 2.0 7.0 0.00 0.74 0.00 76 1012.8
20260510170533 68 0 0.0 7.0 0.00 0.74 0.00 76 1013.0
20260510170045 68 0 1.0 7.0 0.00 0.74 0.00 76 1013.0
20260510165532 68 244 0.0 8.0 0.00 0.74 0.00 78 1013.1
20260510165033 67 321 3.0 8.0 0.00 0.74 0.00 76 1013.0
20260510164548 67 107 1.0 4.0 0.00 0.74 0.00 78 1013.1
20260510164033 67 0 0.0 5.0 0.00 0.74 0.00 80 1013.1
20260510163534 66 0 0.0 6.0 0.00 0.74 0.00 81 1013.2
20260510163044 66 194 0.0 6.0 0.00 0.74 0.00 81 1013.2
20260510162536 65 221 0.0 8.0 0.00 0.74 0.00 83 1013.1
20260510162030 65 191 2.0 8.0 0.00 0.74 0.00 80 1013.3
20260510161543 65 247 2.0 8.0 0.00 0.74 0.00 82 1013.2
20260510161033 64 175 1.0 4.0 0.00 0.74 0.00 84 1013.3
20260510160534 64 0 0.0 4.0 0.00 0.74 0.00 83 1013.3
20260510160049 63 224 0.0 4.0 0.00 0.74 0.00 84 1013.4
20260510155535 63 0 1.0 4.0 0.00 0.74 0.00 84 1013.4
20260510155033 63 0 1.0 4.0 0.00 0.74 0.00 84 1013.5
20260510154559 63 0 0.0 4.0 0.00 0.74 0.00 85 1013.7
20260510154033 62 171 0.0 5.0 0.00 0.74 0.00 85 1013.7
20260510153532 62 0 0.0 5.0 0.00 0.74 0.00 85 1013.7
20260510153100 62 225 0.0 4.0 0.00 0.74 0.00 85 1013.6
20260510152533 62 0 0.0 4.0 0.00 0.74 0.00 86 1013.6
20260510152032 61 0 0.0 4.0 0.00 0.74 0.00 87 1013.8
20260510151547 61 175 0.0 4.0 0.00 0.74 0.00 88 1013.8
20260510151034 61 0 1.0 4.0 0.00 0.74 0.00 87 1013.8
20260510150533 60 0 0.0 3.0 0.00 0.74 0.00 89 1013.8
20260510150106 60 0 0.0 6.0 0.00 0.74 0.00 88 1013.7
20260510145534 59 0 0.0 6.0 0.00 0.74 0.00 88 1013.7
20260510145032 59 319 2.0 4.0 0.00 0.74 0.00 89 1013.6
20260510144606 59 283 0.0 3.0 0.00 0.74 0.00 90 1013.5
20260510144036 58 0 0.0 4.0 0.00 0.74 0.00 90 1013.5
20260510143533 58 269 2.0 4.0 0.00 0.74 0.00 89 1013.6
20260510143045 58 0 1.0 3.0 0.00 0.74 0.00 90 1013.6
20260510142537 57 0 0.0 3.0 0.00 0.74 0.00 91 1013.7
20260510142033 57 0 1.0 3.0 0.00 0.74 0.00 90 1013.6
20260510141547 57 0 1.0 3.0 0.00 0.74 0.00 91 1013.4
20260510141032 57 0 0.0 3.0 0.00 0.74 0.00 92 1013.5
20260510140533 56 0 0.0 3.0 0.00 0.74 0.00 92 1013.3
20260510140045 56 288 0.0 2.0 0.00 0.74 0.00 91 1013.4
20260510135533 56 0 0.0 2.0 0.00 0.74 0.00 92 1013.4
20260510135034 56 0 0.0 2.0 0.00 0.74 0.00 92 1013.5
20260510134549 56 288 0.0 2.0 0.00 0.74 0.00 92 1013.6
20260510134034 56 0 0.0 2.0 0.00 0.74 0.00 93 1013.6
20260510133531 56 0 0.0 2.0 0.00 0.74 0.00 93 1013.5
20260510133044 55 0 0.0 2.0 0.00 0.74 0.00 93 1013.6
20260510132532 55 0 0.0 1.0 0.00 0.74 0.00 93 1013.4
20260510132032 55 0 0.0 3.0 0.00 0.74 0.00 94 1013.5
20260510131546 55 0 0.0 3.0 0.00 0.74 0.00 94 1013.6
20260510131032 55 291 1.0 4.0 0.00 0.74 0.00 94 1013.6
20260510130533 55 0 0.0 4.0 0.00 0.74 0.00 95 1013.6
20260510130045 55 0 0.0 2.0 0.00 0.74 0.00 95 1013.6
20260510125531 54 0 0.0 2.0 0.00 0.74 0.00 95 1013.6
20260510125035 54 0 0.0 4.0 0.00 0.74 0.00 95 1013.6
20260510124545 54 0 1.0 4.0 0.00 0.74 0.00 95 1013.5
20260510124034 54 271 2.0 3.0 0.00 0.74 0.00 96 1013.4
20260510123532 54 0 0.0 2.0 0.00 0.74 0.00 96 1013.4
20260510123048 53 0 0.0 3.0 0.00 0.74 0.00 96 1013.3
20260510122532 53 0 0.0 3.0 0.00 0.74 0.00 96 1013.1
20260510122030 53 0 1.0 3.0 0.00 0.74 0.00 97 1013.0
20260510121546 53 0 0.0 3.0 0.00 0.74 0.00 97 1013.0
20260510121032 53 0 0.0 3.0 0.00 0.74 0.00 97 1013.1
20260510120533 53 0 1.0 3.0 0.00 0.74 0.00 97 1013.1
20260510120054 53 290 0.0 2.0 0.00 0.74 0.00 97 1013.1
20260510115530 52 0 0.0 1.0 0.00 0.75 0.00 97 1012.9
20260510115031 52 290 0.0 2.0 0.00 0.75 0.00 97 1012.8
20260510114544 52 0 0.0 2.0 0.00 0.75 0.00 97 1012.9
20260510114031 52 0 0.0 2.0 0.00 0.75 0.00 97 1013.1
20260510113532 52 290 0.0 2.0 0.00 0.75 0.00 97 1013.0
20260510113043 52 290 0.0 1.0 0.00 0.75 0.00 97 1012.8
20260510112533 52 0 0.0 1.0 0.00 0.75 0.00 97 1012.9
20260510112035 52 0 0.0 0.0 0.00 0.75 0.00 97 1012.8
20260510111549 52 0 0.0 0.0 0.00 0.75 0.00 97 1012.5
20260510111033 51 0 0.0 0.0 0.00 0.75 0.00 97 1012.6
20260510110533 51 0 0.0 1.0 0.00 0.75 0.00 97 1012.6
20260510110044 51 0 0.0 2.0 0.00 0.75 0.00 97 1012.5
20260510105534 51 0 0.0 2.0 0.00 0.76 0.00 97 1012.6
20260510105035 51 0 0.0 2.0 0.00 0.76 0.00 97 1012.5
20260510104555 51 0 0.0 2.0 0.00 0.76 0.00 97 1012.3
20260510104032 51 0 0.0 1.0 0.00 0.76 0.00 97 1012.2
20260510103533 51 0 0.0 1.0 0.00 0.76 0.00 97 1011.9
20260510103046 51 0 0.0 1.0 0.00 0.76 0.00 97 1011.9
20260510102533 51 0 0.0 1.0 0.00 0.76 0.00 97 1012.0
20260510102033 51 0 0.0 1.0 0.00 0.76 0.00 97 1012.1
20260510101550 51 0 0.0 0.0 0.00 0.76 0.00 97 1012.1
20260510101033 51 0 0.0 0.0 0.00 0.76 0.00 97 1012.3
20260510100533 51 0 0.0 0.0 0.00 0.76 0.00 97 1012.5
20260510100054 51 0 0.0 0.0 0.00 0.76 0.00 97 1012.4
20260510095533 51 0 0.0 0.0 0.00 0.76 0.00 97 1012.4
20260510095031 51 0 0.0 0.0 0.00 0.76 0.00 97 1012.3
20260510094553 51 0 0.0 0.0 0.00 0.76 0.00 97 1012.4
20260510094033 51 0 0.0 0.0 0.00 0.76 0.00 97 1012.4
20260510093533 51 0 0.0 1.0 0.00 0.76 0.00 97 1012.4
20260510093049 51 0 0.0 1.0 0.00 0.76 0.00 97 1012.4
20260510092605 51 0 0.0 0.0 0.00 0.76 0.00 97 1012.4
20260510092032 51 0 0.0 0.0 0.00 0.76 0.00 97 1012.3
20260510091546 51 0 0.0 0.0 0.00 0.76 0.00 97 1012.4
20260510091032 51 0 0.0 0.0 0.00 0.76 0.00 97 1012.6
20260510090533 51 0 0.0 0.0 0.00 0.76 0.00 97 1012.7
20260510090055 51 0 0.0 0.0 0.00 0.76 0.00 97 1012.5
20260510085532 51 0 0.0 0.0 0.00 0.77 0.00 97 1012.4
20260510085035 51 0 0.0 0.0 0.00 0.77 0.00 97 1012.4
20260510084557 51 0 0.0 0.0 0.00 0.77 0.00 97 1012.3
20260510084033 51 0 0.0 0.0 0.00 0.77 0.00 97 1012.2
20260510083534 51 0 0.0 0.0 0.00 0.77 0.00 97 1012.3
20260510083110 51 0 0.0 0.0 0.00 0.77 0.00 97 1012.3
20260510082533 51 0 0.0 0.0 0.00 0.77 0.00 97 1012.2
20260510082033 51 0 0.0 1.0 0.00 0.77 0.00 97 1012.1
20260510081604 51 0 0.0 1.0 0.00 0.77 0.00 97 1012.1
20260510081033 51 0 0.0 0.0 0.00 0.77 0.00 97 1012.1
20260510080536 51 0 0.0 0.0 0.00 0.77 0.00 97 1012.0
20260510080046 51 0 0.0 0.0 0.00 0.77 0.00 97 1012.0
20260510075530 51 0 0.0 0.0 0.00 0.77 0.00 97 1012.0
20260510075033 51 0 0.0 0.0 0.00 0.77 0.00 97 1012.0
20260510074544 51 0 0.0 0.0 0.00 0.77 0.00 97 1012.0
20260510074032 51 0 0.0 0.0 0.00 0.77 0.00 97 1012.1
20260510073532 51 0 0.0 0.0 0.00 0.77 0.00 97 1012.0
20260510073049 51 0 0.0 0.0 0.00 0.77 0.00 97 1012.0
20260510072530 51 0 0.0 0.0 0.00 0.77 0.00 97 1012.0
20260510072033 52 0 0.0 0.0 0.00 0.77 0.00 97 1012.0
20260510071545 51 0 0.0 0.0 0.00 0.77 0.00 97 1012.1
20260510071033 51 0 0.0 0.0 0.00 0.77 0.00 97 1012.1
20260510070534 51 0 0.0 0.0 0.00 0.77 0.00 97 1012.0
20260510070043 51 0 0.0 0.0 0.00 0.77 0.00 97 1012.1
20260510065532 51 0 0.0 0.0 0.00 0.77 0.00 97 1012.1
20260510065032 51 0 0.0 0.0 0.00 0.77 0.00 97 1012.1
20260510064548 51 0 0.0 0.0 0.00 0.77 0.00 97 1012.0
20260510064033 51 0 0.0 0.0 0.00 0.77 0.00 97 1011.9
20260510063533 51 0 0.0 0.0 0.00 0.77 0.00 97 1011.9
20260510063046 52 0 0.0 0.0 0.00 0.77 0.00 97 1011.6
20260510062531 51 0 0.0 0.0 0.00 0.77 0.00 97 1011.6
20260510062032 52 0 0.0 0.0 0.00 0.77 0.00 97 1011.6
20260510061554 52 0 0.0 0.0 0.00 0.77 0.00 97 1011.6
20260510061030 52 0 0.0 1.0 0.00 0.77 0.00 97 1011.6
20260510060534 52 0 0.0 1.0 0.00 0.77 0.00 97 1011.8
20260510060048 52 0 0.0 0.0 0.00 0.77 0.00 97 1011.8
20260510055533 52 0 0.0 1.0 0.00 0.77 0.00 97 1011.9
20260510055033 52 0 0.0 1.0 0.00 0.77 0.00 97 1012.0
20260510054544 52 0 0.0 1.0 0.00 0.77 0.00 97 1011.9
20260510054034 52 0 0.0 0.0 0.00 0.77 0.00 97 1011.8
20260510053530 52 0 0.0 0.0 0.00 0.77 0.00 97 1011.9
20260510053046 52 0 0.0 0.0 0.00 0.77 0.00 97 1011.8
20260510052531 52 0 0.0 0.0 0.00 0.77 0.00 97 1011.8
20260510052034 52 0 0.0 0.0 0.00 0.77 0.00 97 1011.8
20260510051545 52 0 0.0 0.0 0.00 0.77 0.00 97 1011.9
20260510051032 52 0 0.0 0.0 0.00 0.77 0.00 97 1012.0
20260510050534 52 0 0.0 0.0 0.00 0.77 0.00 97 1012.2
20260510050047 51 0 0.0 0.0 0.00 0.77 0.00 97 1012.0
20260510045533 51 0 0.0 1.0 0.00 0.77 0.00 97 1012.0
20260510045031 51 0 0.0 1.0 0.00 0.77 0.00 97 1012.0
20260510044549 51 0 0.0 1.0 0.00 0.77 0.00 97 1012.0
20260510044033 51 0 0.0 0.0 0.00 0.77 0.00 97 1011.9
20260510043532 51 0 0.0 0.0 0.00 0.77 0.00 97 1012.0
20260510043046 51 0 0.0 0.0 0.00 0.77 0.00 97 1011.9
20260510042533 51 0 0.0 0.0 0.00 0.77 0.00 97 1011.8
20260510042035 51 0 0.0 0.0 0.00 0.77 0.00 97 1011.9
20260510041545 51 0 0.0 0.0 0.00 0.77 0.00 97 1011.8
20260510041034 51 0 0.0 0.0 0.00 0.77 0.00 97 1011.8
20260510040531 51 0 0.0 0.0 0.00 0.77 0.00 97 1011.8
20260510040042 51 0 0.0 0.0 0.00 0.77 0.00 97 1011.8
20260510035533 51 0 0.0 0.0 0.00 0.77 0.77 97 1011.9
20260510035033 51 0 0.0 0.0 0.00 0.77 0.77 97 1011.9
20260510034555 51 0 0.0 0.0 0.00 0.77 0.77 97 1011.8
20260510034033 51 0 0.0 0.0 0.00 0.77 0.77 97 1011.8
20260510033534 51 0 0.0 0.0 0.00 0.77 0.77 97 1011.9
20260510033046 51 0 0.0 0.0 0.00 0.77 0.77 97 1011.7
20260510032533 51 0 0.0 0.0 0.00 0.77 0.77 97 1011.8
20260510032035 51 0 0.0 0.0 0.00 0.77 0.77 97 1011.9
20260510031559 51 0 0.0 0.0 0.00 0.77 0.77 97 1011.8
20260510031033 51 0 0.0 0.0 0.00 0.77 0.77 97 1011.8
20260510030534 51 0 0.0 1.0 0.00 0.77 0.77 97 1011.7
20260510030045 51 0 0.0 1.0 0.00 0.77 0.77 97 1011.7
20260510025533 51 0 0.0 0.0 0.00 0.77 0.77 97 1011.6
20260510025033 51 0 0.0 0.0 0.00 0.77 0.77 97 1011.5
20260510024544 51 0 0.0 0.0 0.00 0.77 0.77 96 1011.6
20260510024032 51 0 0.0 0.0 0.00 0.77 0.77 96 1011.6
20260510023531 52 0 0.0 0.0 0.00 0.77 0.77 96 1011.8
20260510023047 52 0 0.0 0.0 0.00 0.77 0.77 96 1011.7
20260510022530 52 0 0.0 1.0 0.00 0.77 0.77 97 1011.7
20260510022033 52 0 0.0 1.0 0.00 0.77 0.77 97 1011.8
20260510021544 52 0 0.0 1.0 0.00 0.77 0.77 97 1011.7
20260510021032 52 0 0.0 0.0 0.00 0.77 0.77 97 1011.8
20260510020533 52 0 0.0 0.0 0.00 0.77 0.77 97 1011.8
20260510020044 52 0 0.0 0.0 0.00 0.77 0.77 97 1011.7
20260510015536 52 0 0.0 0.0 0.00 0.77 0.77 97 1011.8
20260510015031 52 0 0.0 1.0 0.00 0.77 0.77 97 1011.8
20260510014547 52 0 0.0 1.0 0.00 0.77 0.77 97 1011.9
20260510014033 52 0 0.0 1.0 0.00 0.77 0.77 97 1011.8
20260510013533 52 0 0.0 1.0 0.00 0.77 0.77 97 1012.0
20260510013051 52 0 0.0 1.0 0.00 0.77 0.77 97 1011.9
20260510012534 52 0 0.0 1.0 0.00 0.77 0.77 97 1011.7
20260510012031 52 0 0.0 2.0 0.00 0.77 0.77 97 1011.6
20260510011543 53 0 0.0 2.0 0.00 0.77 0.77 97 1011.6
20260510011032 52 0 0.0 1.0 0.00 0.77 0.77 97 1011.5
20260510010533 53 0 0.0 0.0 0.00 0.77 0.77 96 1011.6
20260510010045 53 0 0.0 1.0 0.01 0.77 0.77 96 1011.6
20260510005533 53 0 0.0 1.0 0.01 0.77 0.77 96 1011.5
20260510005030 53 0 0.0 1.0 0.02 0.77 0.77 97 1011.4
20260510004550 53 0 0.0 1.0 0.02 0.77 0.77 97 1011.3
20260510004032 53 0 0.0 1.0 0.03 0.77 0.77 97 1011.1
20260510003533 53 0 0.0 1.0 0.03 0.77 0.77 97 1011.1
20260510003049 53 0 0.0 1.0 0.04 0.77 0.77 97 1011.2
20260510002532 53 0 0.0 1.0 0.04 0.77 0.77 97 1011.1
20260510002034 53 0 0.0 2.0 0.04 0.77 0.77 97 1011.2
20260510001545 53 0 0.0 2.0 0.05 0.77 0.77 97 1010.9
20260510001032 53 0 0.0 2.0 0.05 0.77 0.77 97 1011.0
20260510000532 53 0 0.0 2.0 0.06 0.77 0.77 97 1010.9
20260510000044 53 170 0.0 2.0 0.06 0.76 0.76 97 1010.9
20260509235532 53 170 0.0 1.0 0.08 0.76 0.76 97 1011.2
20260509235033 53 170 0.0 1.0 0.08 0.75 0.75 97 1011.4
20260509234543 53 0 0.0 1.0 0.10 0.75 0.75 97 1011.4
20260509234032 53 170 0.0 1.0 0.10 0.74 0.74 97 1011.6
20260509233531 53 170 0.0 2.0 0.12 0.74 0.74 97 1011.6
20260509233047 53 0 0.0 2.0 0.13 0.73 0.73 97 1011.6
20260509232533 53 170 0.0 2.0 0.15 0.73 0.73 97 1011.8
20260509232033 53 261 0.0 1.0 0.16 0.73 0.73 97 1011.8
20260509231553 53 0 0.0 1.0 0.17 0.72 0.72 97 1011.8
20260509231032 53 0 0.0 1.0 0.21 0.72 0.72 97 1011.8
20260509230532 53 0 0.0 1.0 0.22 0.71 0.71 96 1011.9
20260509230047 53 0 0.0 1.0 0.24 0.69 0.69 96 1012.0
20260509225533 53 0 0.0 1.0 0.26 0.68 0.68 96 1012.1